TimeCST,TemperatureF,Dew PointF,Humidity,Sea Level PressureIn,VisibilityMPH,Wind Direction,Wind SpeedMPH,Gust SpeedMPH,PrecipitationIn,Events,Conditions,WindDirDegrees,DateUTC
12:53 AM,12.9,3.0,65,30.18,10.0,WNW,10.4,-,N/A,,Clear,300,2013-02-17 06:53:00
1:53 AM,12.9,3.0,65,30.18,10.0,WNW,9.2,-,N/A,,Clear,290,2013-02-17 07:53:00
2:53 AM,12.9,3.0,65,30.19,10.0,WNW,8.1,-,N/A,,Clear,290,2013-02-17 08:53:00
3:53 AM,12.0,3.0,67,30.18,10.0,WNW,5.8,-,N/A,,Clear,300,2013-02-17 09:53:00
4:53 AM,10.9,3.0,70,30.20,10.0,WNW,5.8,-,N/A,,Clear,290,2013-02-17 10:53:00
5:53 AM,10.9,3.9,73,30.22,10.0,West,4.6,-,N/A,,Clear,280,2013-02-17 11:53:00
6:53 AM,10.0,3.9,76,30.24,10.0,West,5.8,-,N/A,,Clear,270,2013-02-17 12:53:00
7:53 AM,15.1,5.0,64,30.24,10.0,West,5.8,-,N/A,,Clear,260,2013-02-17 13:53:00
8:53 AM,19.9,9.0,62,30.25,10.0,West,5.8,-,N/A,,Clear,270,2013-02-17 14:53:00
9:53 AM,21.9,7.0,53,30.25,10.0,SSE,4.6,-,N/A,,Clear,160,2013-02-17 15:53:00
10:53 AM,23.0,6.1,48,30.25,10.0,SW,5.8,-,N/A,,Clear,220,2013-02-17 16:53:00
11:53 AM,25.0,3.9,41,30.23,10.0,South,5.8,-,N/A,,Clear,180,2013-02-17 17:53:00
12:53 PM,27.0,3.0,36,30.22,10.0,SSW,11.5,-,N/A,,Clear,200,2013-02-17 18:53:00
1:53 PM,28.0,5.0,38,30.21,10.0,South,10.4,-,N/A,,Clear,190,2013-02-17 19:53:00
2:53 PM,28.0,3.9,36,30.19,10.0,SSW,9.2,-,N/A,,Clear,210,2013-02-17 20:53:00
3:53 PM,28.0,3.0,34,30.18,10.0,SSW,6.9,-,N/A,,Clear,200,2013-02-17 21:53:00
4:53 PM,28.0,7.0,41,30.17,10.0,South,6.9,-,N/A,,Clear,170,2013-02-17 22:53:00
5:53 PM,26.1,10.0,51,30.16,10.0,South,5.8,-,N/A,,Clear,170,2013-02-17 23:53:00
6:53 PM,26.1,10.9,53,30.16,10.0,SSE,6.9,-,N/A,,Clear,160,2013-02-18 00:53:00
7:53 PM,26.1,10.9,53,30.15,10.0,SSE,5.8,-,N/A,,Clear,150,2013-02-18 01:53:00
8:53 PM,25.0,10.9,55,30.14,10.0,SE,8.1,-,N/A,,Clear,140,2013-02-18 02:53:00
9:53 PM,25.0,12.0,58,30.12,10.0,SE,8.1,-,N/A,,Clear,140,2013-02-18 03:53:00
11:53 PM,26.1,12.9,58,30.09,10.0,SE,8.1,-,N/A,,Clear,140,2013-02-18 05:53:00